Regional Weather Roundup
Issued by NWS

Home | Current Version | Previous Version | Text Only | Print | Product List | Glossary On
Versions: 1 2 3 4 5 6 7 8 9 10 11 12 13 14 15 16 17 18 19 20 21 22 23 24 25 26 27 28 29 30 31 32 33 34 35 36 37 38 39 40 41 42 43 44 45 46 47 48 49 50
000
ASUS43 KMKX 241631
RWRWI

WISCONSIN REGIONAL WEATHER ROUNDUP
NATIONAL WEATHER SERVICE MILWAUKEE/SULLIVAN WI
1200 PM CDT SUN MAY 24 2015

NOTE: "FAIR" INDICATES FEW OR NO CLOUDS BELOW 12,000 FEET WITH NO
SIGNIFICANT WEATHER AND/OR OBSTRUCTIONS TO VISIBILITY.

WIZ001-002-006>008-014>016-023>028-241800-
NORTHWEST WISCONSIN

CITY           SKY/WX    TMP DP  RH WIND       PRES   REMARKS
SUPERIOR ARPT  CLOUDY    64  46  51 CALM      30.09S
ASHLAND        CLOUDY    70  49  47 CALM      30.10F
HAYWARD        CLOUDY    67  48  50 E3        30.09F
SIREN          CLOUDY    64  52  64 E5        30.06F
CUMBERLAND     CLOUDY    64  46  52 SE8       30.08S
RICE LAKE      CLOUDY    67  49  52 SE7       30.09S
CHETEK         CLOUDY    67  53  59 SE7       30.07F
LADYSMITH      CLOUDY    70  50  48 SE6       30.11S
EAU CLAIRE     CLOUDY    67  50  54 S16       30.08S
MENOMONIE      CLOUDY    67  51  56 SE9       30.07F
NEW RICHMOND   CLOUDY    65  51  60 E8        30.05F
OSCEOLA        CLOUDY    66  52  60 SE6       30.07F
$$

WIZ003>005-009-010-017-018-241800-
NORTH CENTRAL WISCONSIN

CITY           SKY/WX    TMP DP  RH WIND       PRES   REMARKS
MANITOWISH WTR CLOUDY    70  46  42 S5        30.12F
ARBOR VITAE    CLOUDY    72  45  38 S7        30.12F
WOODRUFF       CLOUDY    72  45  38 S7        30.12F
RHINELANDER    CLOUDY    72  44  36 S8        30.13F
EAGLE RIVER    CLOUDY    72  38  28 S6        30.13S
LAND O LAKES   PTSUNNY   72  39  30 SE5       30.13F
PHILLIPS       CLOUDY    68  48  48 SE6       30.11S
TOMAHAWK       CLOUDY    70  49  47 CALM      30.13F
MEDFORD        CLOUDY    68  49  51 SE8       30.11F
MERRILL        CLOUDY    70  49  48 S3        30.12F
$$

WIZ029-030-035-036-043>047-241800-
CENTRAL WISCONSIN

CITY           SKY/WX    TMP DP  RH WIND       PRES   REMARKS
WAUSAU         CLOUDY    70  48  45 S7        30.10F
MOSINEE        SUNNY     66  52  59 S10       30.14S
MARSHFIELD     LGT RAIN  64  51  62 S15G23    30.13R
STEVENS POINT  CLOUDY    65  50  57 S14       30.14S
WAUPACA        LGT RAIN  68  53  57 S14G21    30.15S
WAUTOMA        LGT RAIN  63  58  83 S9        30.17R
WISC RAPIDS    LGT RAIN  61  53  75 SW9       30.16R
CAMP DOUGLAS   LGT RAIN  59  59 100 SE7       30.13F
$$

WIZ011>013-019>022-031-037>040-048>050-241800-
NORTHEAST WISCONSIN

CITY           SKY/WX    TMP DP  RH WIND       PRES   REMARKS
ANTIGO         CLOUDY    69  50  50 S5        30.15S
SHAWANO        CLOUDY    71  50  46 CALM      30.13F
OCONTO         CLOUDY    69  52  54 CALM      30.13R
STURGEON BAY   CLOUDY    64  46  52 E6        30.17S
GREEN BAY      CLOUDY    72  51  47 S8        30.14S
MANITOWOC      CLOUDY    58  47  66 S10       30.17R
APPLETON       CLOUDY    66  52  59 S7        30.15R
CLINTONVILLE   CLOUDY    68  48  49 S10       30.14R
OSHKOSH        LGT RAIN  63  55  75 SW8       30.17R
$$

WIZ032>034-041-042-053>061-241800-
SOUTHWEST WISCONSIN

CITY           SKY/WX    TMP DP  RH WIND       PRES   REMARKS
LA CROSSE      LGT RAIN  61  57  87 SE6       30.09F
SPARTA         LGT RAIN  58  55  88 SE5       30.12F
VIROQUA        CLOUDY    57  57 100 E10       30.10F
BOSCOBEL       LGT RAIN  60  57  89 E7        30.10F FOG
PRAIRIE DU CHI LGT RAIN  59  55  88 E8        30.06F
PLATTEVILLE    CLOUDY    58  56  94 E13       30.09F
$$

WIZ056-057-062-063-064-067-068-241800-
SOUTH CENTRAL WISCONSIN

CITY           SKY/WX    TMP DP  RH WIND       PRES   REMARKS
REEDSBURG      RAIN      57  56  94 SE3       30.14S
BARABOO/DELLS  LGT RAIN  58  55  88 SE3       30.15S
LONE ROCK      LGT RAIN  59  56  89 E10       30.12F FOG
MINERAL POINT  LGT RAIN  57  55  94 E9        30.12F
MADISON        LGT RAIN  61  56  83 SE6       30.16S
MIDDLETON      CLOUDY    62  55  79 SE3       30.16S
WATERTOWN      LGT RAIN  62  59  90 CALM      30.16F
MONROE         RAIN      59  55  88 E7        30.12F
JANESVILLE     LGT RAIN  63  57  82 SE6       30.15F
$$

WIZ051-052-058>065-066-070>072-241800-
SOUTHEAST WISCONSIN

CITY           SKY/WX    TMP DP  RH WIND       PRES   REMARKS
MILWAUKEE      CLOUDY    66  54  65 W3        30.18S
WAUKESHA       LGT RAIN  61  54  77 CALM      30.19R FOG
MILWAUKEE/TIMM LGT RAIN  64  54  68 CALM      30.19R
RACINE         LGT RAIN  64  51  62 SE5       30.19S
BURLINGTON     RAIN      63  54  73 CALM      30.17S
KENOSHA        CLOUDY    68  54  60 SE3       30.18R
FOND DU LAC    LGT RAIN  63  56  78 SW6       30.18R
SHEBOYGAN      LGT RAIN  66  53  63 SW18      30.19R
WEST BEND      RAIN      63  54  72 SW5       30.19R
JUNEAU         LGT RAIN  61  55  81 SE6       30.19S
$$

LSZ147-162-241800-
LAKE SUPERIOR

STATION/POSITION TIME  TEMP    WIND        PRES    WAVE
                       AIR SEA DIR/SP/G            HT/PER
                 (UTC) (F)     (DEG/KT/KT) (MB)    (FT/S)
W MID LAKE BUOY  1550   44 37  210/  8/ 10   N/A     1
DEVILS ISLAND    1600   66      CALM  /  2   N/A
PORT WING        1500   59      CALM  /  2   N/A
SAXON HARBOR     1430   56     300/  4/ 20   N/A
$$

LMZ867-665-643>646-241800-
LAKE MICHIGAN

STATION/POSITION TIME  TEMP    WIND        PRES    WAVE
                       AIR SEA DIR/SP/G            HT/PER
                 (UTC) (F)     (DEG/KT/KT) (MB)    (FT/S)
CHAMBERS ISLAND  1500   66     180/  6/  9   N/A
N MID LAKE BUOY  1550   44 36  200/  4/  4   N/A     0
NORTHPORT PIER   1500   52     140/  9/ 11   N/A
SISTER BAY       1503   67     170/  3/  6   N/A
KEWAUNEE LAKESHO 1600   49     170/ 11/ 13   N/A
SHEBOYGAN LAKESH 1600   62     210/ 15/ 17   N/A
PORT WASHINGTON  1500   53     220/  3/  6   N/A
ATWATER BUOY     1600   50 46  100/  4/  4   N/A
MILWAUKEE LAKESH 1600   53      10/  4/  4   N/A
S MID LAKE BUOY  1550   47 38  150/  4/  6   N/A     0
KENOSHA   LAKESH 1600   55     170/  5/  7   N/A
$$

TC  - TEMPERATURE IN CELSIUS
VSB - VISIBILITY IN STATUTE MILES
WCI - WIND CHILL INDEX
HX  - HEAT INDEX




USA.gov is the U.S. government's official web portal to all federal, state and local government web resources and services.